Temp
7 7 7 7 7 7 7 7 7 8 8 8 9 10 10 10 12 15 18 17 16 16 17 20 22 23 23 27 28 28 28 29 31 31 31 32 32 35 35 34 35 36 36 34 32
7 7 7 7 7 7 8 7 8 8 8 8 9 9 9 8 12 17 15 14 16 16 18 22 24 24 25 26 27 27 28 29 31 32 30 31 33 34 33 34 34 34 34 34 34
7 7 7 7 7 7 8 9 10 10 9 9 9 8 8 9 17 19 14 15 16 17 18 19 22 26 25 27 27 27 27 31 31 31 30 30 32 34 33 33 35 34 35 34 34
7 7 7 7 7 8 9 11 12 12 13 13 11 9 10 12 21 18 16 15 16 17 19 20 22 23 25 26 28 27 28 28 30 31 28 29 30 32 33 33 35 34 33 33 33
6 7 7 7 7 8 9 11 11 11 11 12 12 10 13 19 20 17 16 15 16 18 20 21 22 23 25 27 27 27 28 29 29 29 29 28 29 30 32 33 34 34 33 32 33
6 6 6 8 11 12 12 12 12 12 13 12 12 10 14 20 17 16 16 16 17 19 20 21 22 23 23 25 27 28 28 28 29 29 29 28 28 29 31 32 32 32 32 33 33
6 6 6 8 11 12 13 13 13 12 12 12 11 11 15 19 17 17 17 17 17 17 20 20 21 21 24 23 25 26 25 27 28 28 28 28 27 28 31 32 32 31 32 32 33
6 7 8 11 12 12 13 13 13 13 12 12 10 12 18 17 17 18 18 19 17 17 17 19 20 22 22 23 23 24 25 25 27 28 28 27 26 30 32 32 31 31 32 32 33
7 7 9 12 12 12 13 13 13 12 11 10 13 15 20 18 20 19 19 19 19 19 17 18 19 20 22 21 22 23 24 25 27 29 28 25 26 29 31 32 32 32 32 33 33
8 7 7 11 12 12 13 13 13 12 11 12 13 16 20 19 19 18 19 18 19 20 19 19 20 20 22 22 22 23 25 25 26 29 28 27 26 29 31 30 31 31 31 32 32
8 8 7 11 12 12 13 15 18 18 17 18 18 17 19 19 18 19 19 19 20 19 19 21 20 20 21 23 23 23 24 25 26 28 28 28 27 28 29 30 30 31 31 31 31
8 7 7 12 13 13 13 17 15 14 16 18 17 17 17 17 17 20 20 19 19 19 20 19 19 21 21 21 21 22 21 23 24 25 26 27 27 28 29 29 30 30 30 30 31
8 7 6 11 13 13 15 15 13 13 16 17 18 18 19 19 18 19 20 19 19 19 20 19 20 21 19 19 19 20 20 21 22 24 25 25 25 26 28 29 29 29 29 29 29
7 6 6 11 11 13 15 13 13 12 16 17 18 19 19 19 18 20 19 19 19 18 19 19 20 20 19 19 20 19 21 21 21 22 22 25 23 26 27 27 28 29 29 29 29
9 6 6 9 12 16 14 13 12 13 17 18 18 18 19 19 18 19 19 19 18 18 19 19 20 19 19 19 20 19 21 21 21 21 22 23 23 25 27 27 28 29 29 29 30
10 11 12 10 10 13 12 12 13 16 16 17 18 18 18 19 18 19 19 20 20 18 19 19 20 19 19 20 20 20 20 20 21 21 21 23 23 24 26 27 28 29 30 30 30
11 12 11 11 15 12 12 15 16 16 17 17 17 17 17 17 18 18 17 18 17 15 17 18 19 18 19 18 20 20 18 18 18 19 20 23 23 24 27 27 28 28 28 29 29
11 11 11 11 12 12 14 17 16 16 16 17 17 17 16 17 17 17 17 17 18 16 16 15 15 16 16 15 17 18 19 18 18 20 21 23 22 24 26 27 28 28 28 28 28
11 11 13 12 11 12 17 17 15 16 15 15 16 16 17 17 17 17 17 17 17 16 14 14 15 18 14 13 15 17 18 20 19 20 22 24 24 25 26 26 27 28 27 27 27
10 14 14 12 11 14 17 14 16 15 15 15 14 16 15 16 16 16 16 17 16 16 16 15 13 18 14 12 16 18 19 18 19 17 20 23 24 24 26 25 27 26 26 26 26
12 16 13 11 12 17 14 16 15 15 14 14 14 14 15 14 15 16 16 17 16 16 16 15 14 16 17 12 13 18 18 17 18 19 20 22 24 26 26 26 25 25 25 26 26
13 16 12 12 14 14 14 14 11 14 15 14 14 14 14 14 14 15 15 16 16 16 14 15 14 15 17 17 17 16 15 17 17 17 19 21 23 25 25 24 25 25 25 25 26
12 14 13 13 13 14 14 13 13 14 14 13 13 14 14 14 11 14 14 16 15 15 13 13 14 14 17 17 17 16 17 17 18 18 17 20 22 24 24 25 25 25 25 25 25
12 13 15 14 13 13 13 13 13 13 13 14 13 14 14 13 14 12 14 14 15 14 14 13 12 13 14 16 16 15 17 17 18 16 19 20 22 24 25 24 24 25 24 25 26
12 11 11 13 13 12 12 12 13 13 13 14 13 13 12 11 12 12 14 13 14 14 14 13 13 15 17 17 17 16 17 17 18 18 18 20 21 23 23 23 23 23 23 24 25
10 10 12 11 11 12 11 13 12 13 13 12 12 12 11 10 11 10 12 12 10 14 14 14 12 14 15 17 17 16 17 18 18 19 19 19 19 22 22 22 22 23 23 24 24
7 5 6 10 12 11 12 12 11 12 13 13 12 11 11 13 14 14 14 13 12 10 11 12 13 13 13 16 16 15 17 19 19 20 20 19 20 22 22 22 22 22 23 23 23
Height
835 832 829 826 822 820 817 815 812 809 806 803 799 796 795 792 787 787 786 785 784 782 781 779 777 776 776 768 766 766 770 762 752 754 752 741 742 726 724 729 725 720 719 725 726
834 831 828 825 821 817 814 812 809 807 804 802 799 796 794 792 790 785 786 784 783 781 780 773 770 772 770 766 762 762 759 747 736 737 749 741 736 728 734 730 728 725 725 725 725
833 830 827 823 820 817 813 810 808 805 803 800 797 795 792 789 784 779 782 781 781 781 778 775 773 765 765 756 755 751 749 735 733 734 742 744 736 726 734 733 721 724 720 724 727
832 830 826 823 819 815 812 809 806 803 799 796 794 792 790 790 776 782 781 780 779 778 776 774 771 766 759 752 747 753 736 739 734 732 743 745 736 730 725 724 715 720 723 727 726
831 828 824 820 816 814 811 808 805 801 797 795 793 791 790 782 778 781 780 779 778 777 774 771 767 762 753 745 744 739 737 733 732 734 734 741 737 731 721 716 717 718 722 724 725
829 826 822 817 813 811 808 805 803 800 797 795 793 791 790 777 782 781 780 779 776 773 772 770 765 759 755 746 740 732 732 731 729 730 732 740 731 734 716 714 716 720 720 717 720
828 824 820 815 811 808 806 804 801 798 796 794 792 793 790 782 783 782 779 777 776 775 768 766 765 763 749 753 742 738 742 733 723 723 728 732 734 720 712 711 710 715 715 712 713
825 821 817 813 809 806 804 801 798 796 795 794 793 794 782 782 780 777 775 772 772 772 771 767 764 758 755 749 746 747 740 740 711 720 720 734 730 695 699 704 708 707 708 705 704
823 819 814 811 808 804 801 798 794 793 793 793 794 792 776 779 777 777 774 772 769 766 768 767 763 756 749 753 753 739 733 721 716 706 717 733 718 697 694 696 696 697 698 698 697
822 817 813 810 807 804 800 797 795 794 795 795 793 791 778 778 777 775 772 771 769 764 762 761 756 751 746 745 738 730 722 719 716 700 707 714 706 700 689 693 691 692 695 693 693
821 816 812 808 806 804 800 798 793 790 789 784 785 785 779 778 777 772 771 768 765 763 759 746 754 745 740 733 729 727 721 710 703 698 701 699 696 697 693 691 689 688 688 689 691
820 815 810 806 805 803 802 798 802 804 791 783 784 784 783 783 777 767 767 767 762 759 750 752 749 739 738 738 736 730 731 720 714 709 703 699 692 688 686 682 681 683 683 683 683
817 812 807 804 803 803 802 803 803 802 790 781 779 779 777 777 771 768 765 762 761 756 748 748 738 734 743 743 744 738 733 727 721 711 705 704 698 690 678 678 679 680 681 681 682
814 808 803 801 805 802 800 803 803 802 783 779 775 774 773 769 765 764 763 763 758 753 748 740 734 737 739 739 735 734 724 722 721 719 717 701 703 684 679 677 674 673 673 673 673
810 804 800 799 802 799 804 802 801 802 773 777 774 774 770 769 768 759 760 756 756 748 747 738 733 735 734 729 726 725 719 717 715 714 713 704 703 677 673 675 669 665 665 666 663
807 801 798 800 802 802 802 801 801 787 778 774 773 771 768 761 762 757 754 750 745 746 739 733 727 730 727 723 723 718 718 715 711 708 705 692 696 680 674 666 659 656 655 656 656
805 800 800 801 799 801 800 797 785 776 776 774 775 770 767 762 759 757 755 748 751 754 736 731 724 727 723 724 715 717 722 722 719 709 699 683 693 683 659 659 649 657 657 656 654
803 800 801 801 801 799 797 787 783 781 776 775 774 769 766 764 759 758 754 748 742 752 747 745 738 733 733 736 723 716 711 715 706 693 690 682 686 669 658 655 653 652 654 653 652
802 802 802 801 799 799 790 779 783 779 783 783 775 766 761 761 760 754 751 750 747 750 758 746 740 724 738 739 735 718 712 700 697 690 668 657 668 664 652 659 654 651 653 654 653
805 801 800 800 798 796 785 790 781 786 786 782 780 771 769 761 762 756 752 746 749 749 748 747 743 719 733 741 719 710 706 710 700 711 683 653 658 662 646 656 652 658 659 655 651
805 794 801 798 797 788 791 783 787 786 788 785 779 776 770 769 765 758 755 747 747 747 744 744 742 723 713 738 730 703 701 713 706 692 677 660 648 632 641 641 656 659 659 655 649
804 791 800 798 794 794 789 792 799 786 785 784 780 776 772 769 767 761 756 751 749 748 747 743 741 727 712 709 712 712 715 704 705 705 686 664 655 638 641 653 654 655 656 653 648
807 800 800 798 796 792 791 792 793 787 785 785 782 775 774 772 776 761 756 751 753 751 752 751 737 730 704 706 704 708 709 707 702 697 699 671 659 645 649 648 649 651 653 655 651
811 801 794 797 800 798 793 787 787 788 786 783 782 777 773 771 765 764 755 753 752 751 751 752 744 737 724 703 709 712 706 701 698 703 684 674 659 644 644 648 652 653 654 652 648
815 810 812 795 794 799 796 793 787 785 784 782 776 776 779 777 767 760 752 753 748 743 740 745 734 719 707 703 704 704 702 698 694 688 685 670 667 655 652 654 656 658 657 652 647
820 819 812 806 805 798 795 786 787 784 785 782 782 780 782 779 772 765 758 754 760 741 737 735 733 720 711 699 696 696 691 688 684 682 681 679 673 660 658 657 659 657 652 651 648
827 829 828 809 798 797 790 791 791 791 781 778 780 782 777 764 755 751 749 745 749 755 748 740 728 724 711 700 699 696 680 672 667 666 669 669 661 651 652 651 653 653 653 650 648
Wind_Speed
16 16 16 17 18 18 17 17 16 15 15 16 17 18 19 20 22 14 11 3 4 10 10 11 9 7 12 16 17 13 13 17 23 19 13 6 15 16 8 11 9 2 3 6 1
16 16 17 18 18 19 19 18 16 15 15 15 16 17 19 19 17 8 0 6 7 8 8 11 14 14 13 17 13 17 17 26 18 14 9 17 16 11 7 15 14 9 8 5 6
17 18 18 19 19 18 17 16 15 15 15 15 16 16 16 16 8 4 7 7 8 10 6 8 13 15 21 16 23 22 26 22 22 16 13 19 19 14 14 16 16 13 10 3 2
18 18 18 19 18 17 15 15 17 18 18 15 14 13 13 7 3 3 9 13 14 7 5 5 9 17 20 26 22 26 26 26 27 17 12 21 18 24 23 21 18 6 9 12 13
19 19 20 20 18 16 14 13 16 18 15 12 10 9 7 5 4 2 6 8 4 2 8 8 10 14 25 19 25 29 29 25 24 23 17 19 24 23 23 22 20 19 17 19 18
20 21 21 19 16 14 12 13 14 14 11 9 8 5 5 4 6 5 9 12 6 7 3 8 9 10 16 23 25 21 25 30 28 20 21 25 28 21 27 23 22 22 22 22 19
20 21 20 19 15 14 12 13 14 13 10 7 6 1 4 7 7 11 12 9 8 7 9 7 13 12 6 15 21 24 27 26 25 29 28 20 29 36 29 25 24 20 21 21 21
23 23 22 19 14 14 14 16 17 10 4 3 1 2 4 3 9 11 11 11 4 9 10 9 10 15 18 16 18 17 23 25 34 26 25 22 30 37 28 26 26 27 22 23 24
24 24 23 18 15 15 17 18 8 1 1 4 1 5 2 6 13 12 10 11 14 10 7 8 7 14 14 18 17 21 24 31 30 28 24 21 37 34 30 22 23 22 21 21 20
25 25 24 20 15 12 16 8 4 5 3 2 3 4 4 9 18 19 7 10 8 9 10 10 8 12 14 16 22 27 27 28 28 23 27 28 35 29 22 13 24 24 23 22 20
28 25 24 19 14 8 13 6 5 6 5 7 5 5 7 16 16 10 8 9 8 9 13 12 11 14 17 20 26 25 27 26 21 21 27 29 35 30 27 28 26 23 23 23 23
30 24 23 17 12 5 5 4 4 5 7 5 6 6 9 6 12 10 10 6 8 12 11 10 16 16 13 17 21 23 26 30 20 17 21 26 31 27 27 29 27 26 25 24 23
32 28 23 13 5 3 3 5 3 7 6 2 3 6 4 11 10 11 11 8 14 16 14 15 16 11 11 14 20 24 25 24 27 17 22 20 27 26 23 22 21 24 24 24 24
32 29 22 7 1 1 0 2 9 4 5 5 5 4 5 13 8 12 3 10 14 17 15 16 13 14 15 20 18 21 22 25 24 22 20 20 21 23 24 28 28 27 26 24 23
36 27 17 4 2 1 3 6 3 5 4 2 2 3 10 8 9 1 9 8 16 18 14 19 19 17 17 19 20 22 19 24 20 21 24 30 18 18 18 22 22 20 20 21 22
36 18 5 3 3 0 5 2 6 6 0 0 2 9 11 10 5 7 12 12 12 15 15 19 17 18 22 21 24 22 18 21 20 18 20 27 23 20 20 22 19 17 18 17 12
34 8 2 3 3 3 5 4 5 5 2 2 8 12 16 8 10 9 14 11 7 9 11 15 11 10 15 17 20 17 17 12 17 19 18 20 19 18 7 7 7 1 6 9 7
26 3 1 1 4 5 6 6 5 2 5 10 10 17 7 9 8 13 11 12 4 9 12 8 12 3 5 16 20 20 19 14 20 17 22 26 22 17 21 22 23 14 4 5 6
13 0 2 4 3 6 7 4 2 5 5 9 16 8 3 5 9 12 12 7 5 7 9 12 8 17 3 12 19 21 19 21 24 20 15 19 25 24 14 10 10 9 6 5 8
9 3 3 8 5 7 4 3 3 3 8 8 12 4 12 14 11 10 10 4 8 2 7 12 18 11 2 5 20 23 19 14 13 15 17 15 22 12 21 24 12 5 3 8 11
5 4 5 6 4 3 2 4 6 4 8 6 9 13 13 11 10 12 6 13 3 10 14 15 9 16 12 2 10 12 17 10 15 13 16 12 13 16 7 12 11 4 7 11 14
6 2 6 5 2 1 4 7 4 3 3 9 8 10 10 12 11 13 12 9 16 13 18 9 7 12 17 7 10 2 9 7 11 14 17 16 4 5 18 13 6 5 9 14 16
6 3 3 6 2 4 5 7 4 5 6 5 7 7 12 15 7 8 14 9 15 15 6 8 4 10 9 6 11 6 10 13 13 7 15 15 8 12 9 4 7 12 13 14 17
4 3 1 3 2 5 8 2 4 2 10 4 11 14 11 10 13 10 18 10 12 14 14 12 9 13 14 17 6 10 10 12 12 11 16 17 20 13 14 13 14 17 15 18 18
3 2 4 4 2 9 7 6 7 5 4 11 6 7 10 10 18 19 10 20 21 22 16 6 13 15 17 19 17 16 18 17 19 19 19 18 18 18 18 17 16 17 19 19 16
4 4 4 9 7 8 1 3 7 5 9 10 11 12 14 17 16 23 20 18 7 12 11 6 10 12 17 17 17 20 20 21 22 22 18 22 25 24 23 22 20 18 16 15 15
2 1 2 6 4 5 2 5 10 13 9 9 10 14 18 19 18 22 21 21 16 11 13 8 8 8 13 10 10 12 16 17 21 20 18 21 21 20 20 21 19 18 16 16 15
Wind_Direction
353 349 344 342 339 336 334 332 329 329 326 321 320 321 323 321 324 311 271 306 288 307 295 270 263 220 222 224 223 232 239 242 242 233 243 239 249 243 249 258 216 277 83 50 140
348 345 342 340 339 337 335 332 330 328 322 315 313 319 321 324 315 281 32 73 12 344 292 255 235 208 209 218 216 218 228 239 247 257 237 246 251 252 237 224 224 220 141 89 91
348 345 342 339 337 336 335 339 340 332 320 312 315 318 321 330 283 78 110 339 353 351 297 269 253 231 226 220 216 222 239 246 245 246 244 251 257 246 245 246 221 217 202 199 302
345 342 339 336 335 337 341 345 343 334 331 326 321 327 326 317 353 54 254 297 307 303 288 254 234 220 231 227 226 239 240 241 259 242 236 249 262 261 250 249 250 206 257 281 282
344 342 338 336 335 337 337 342 341 333 335 346 339 337 347 252 41 349 333 335 331 309 247 253 251 235 236 237 235 237 241 247 245 254 239 254 249 252 250 247 254 256 257 263 272
344 341 338 338 342 343 341 340 342 337 346 349 346 2 306 76 360 328 315 319 304 326 313 245 244 258 280 258 247 239 248 247 252 238 245 242 251 252 246 253 254 259 260 260 257
344 341 338 338 342 345 344 336 328 321 317 335 347 332 277 23 338 323 319 304 293 290 304 286 248 245 273 259 260 257 260 261 249 241 239 245 255 247 248 248 255 254 255 255 257
345 342 340 342 345 346 343 331 317 309 290 308 96 275 295 298 331 330 333 326 289 264 273 290 252 246 252 265 277 261 246 245 240 232 238 229 254 250 243 233 239 253 254 259 262
344 341 339 340 342 345 345 333 334 108 133 116 211 289 51 313 348 341 321 317 320 288 252 265 232 240 241 235 252 242 243 236 246 231 223 216 244 252 255 255 241 247 261 258 262
347 340 337 335 337 342 348 2 13 77 87 227 249 242 228 342 335 328 313 305 300 297 253 238 238 244 230 233 236 237 238 246 258 238 227 224 242 249 258 243 247 244 249 252 254
346 339 337 334 333 338 349 291 242 182 229 301 328 294 309 328 313 299 338 307 268 261 270 233 260 255 261 253 252 263 268 260 262 250 256 230 241 246 246 255 257 255 255 258 261
346 336 331 332 333 350 345 25 37 341 294 276 264 274 276 286 299 311 332 288 304 293 296 252 248 266 284 280 276 257 255 257 256 282 251 244 252 250 244 248 251 255 255 263 270
347 337 329 327 322 345 356 34 358 323 266 302 242 274 298 298 300 294 319 307 296 288 275 267 276 296 256 268 251 254 253 250 253 263 236 250 252 253 248 251 255 257 259 263 266
347 334 327 336 177 335 122 346 324 284 267 133 185 156 276 319 253 299 294 300 288 286 288 276 289 278 264 263 264 266 250 253 251 243 243 219 256 244 238 242 243 248 252 256 262
347 336 323 193 351 283 46 319 305 202 276 64 177 356 299 302 310 269 321 301 292 295 279 267 281 289 268 258 263 266 264 251 238 242 249 249 262 263 259 258 257 255 253 254 260
348 342 355 97 189 295 330 307 182 233 265 143 279 316 314 325 293 297 311 298 271 275 273 270 270 264 274 271 269 265 251 245 243 241 236 236 239 255 253 254 253 250 249 250 260
346 349 103 147 31 297 322 201 248 278 102 22 325 321 316 312 306 342 332 313 331 312 310 309 303 329 288 263 246 240 244 238 220 232 238 228 232 242 210 4 235 144 243 247 281
346 11 125 21 317 300 273 242 269 358 327 332 316 311 303 348 335 335 319 319 300 331 310 327 310 349 354 272 272 227 227 234 225 228 232 227 239 223 228 257 253 291 249 248 330
359 348 169 349 328 311 271 262 275 353 348 319 313 297 327 297 320 316 324 320 332 354 333 317 296 311 280 304 288 240 247 246 267 282 254 222 214 249 253 229 233 221 299 332 331
337 248 68 333 299 279 273 292 290 307 312 303 303 296 317 327 313 327 317 339 300 335 304 304 305 308 190 303 266 248 229 228 245 256 239 225 206 223 212 214 224 134 37 15 1
314 250 27 339 274 257 274 325 310 317 311 306 305 295 302 319 299 309 278 308 21 309 311 308 275 294 295 92 283 219 219 249 266 261 263 223 213 212 232 132 127 94 27 10 9
328 269 9 343 267 284 302 341 354 305 237 288 283 283 293 306 297 294 286 290 313 309 303 322 292 289 293 181 243 300 317 265 249 221 258 279 74 88 120 143 135 45 11 358 353
329 302 359 310 354 339 335 297 276 292 323 297 288 281 306 291 306 299 293 296 309 301 327 2 275 309 300 172 219 236 272 258 240 289 267 255 242 155 159 187 346 336 343 335 336
312 323 103 48 40 329 343 302 305 263 289 264 283 290 287 294 286 276 290 301 292 301 303 301 264 268 278 296 284 274 267 252 255 260 253 248 267 219 227 301 313 308 323 320 325
359 22 358 311 314 329 302 284 299 316 276 300 287 271 302 298 309 285 300 304 296 284 273 243 264 267 274 275 276 274 269 262 258 256 265 264 269 270 275 291 306 303 305 308 320
346 343 344 298 293 294 40 292 302 316 304 288 283 288 303 287 279 288 295 296 264 295 283 239 268 286 285 278 262 263 261 260 256 250 251 258 266 268 279 280 284 289 300 308 313
64 55 283 303 295 303 328 331 308 314 295 258 294 291 290 293 305 297 291 282 270 264 268 283 260 272 275 285 291 276 265 261 253 250 253 256 263 272 269 269 275 283 291 292 302